Overview Statistics Trail Chart Weather Telemetry Raw packets
 

This is the latest recevied weather packets stored in our database for station/object IW1RCO-13. If no packets are shown the sender has not sent any weather packets the latest 10 day(s).

<< 42 43 44 45 46 47 48 >>
Time Temp. Humidity Pressure Rain* Wind** Luminosity Snow
1788334471 22.22° C 79% 1019.4 hPa - - - -
1788334167 22.22° C 79% 1019.3 hPa - - - -
1788333871 22.22° C 79% 1019.2 hPa - - - -
1788333567 22.22° C 79% 1018.7 hPa - - - -
1788333270 22.22° C 79% 1018.6 hPa - - - -
1788332967 21.67° C 80% 1019.2 hPa - - - -
1788331166 20.56° C 86% 1019.5 hPa - - - -
1788330869 20° C 87% 1019.5 hPa - - - -
1788330566 20° C 88% 1019.2 hPa - - - -
1788330269 19.44° C 88% 1019.2 hPa - - - -
1788329972 18.89° C 90% 1018.9 hPa - - - -
1788329669 18.89° C 90% 1019.2 hPa - - - -
1788329372 18.33° C 91% 1018.9 hPa - - - -
1788329069 18.33° C 91% 1019.5 hPa - - - -
1788328772 18.33° C 91% 1019.5 hPa - - - -
1788328468 18.33° C 92% 1019.1 hPa - - - -
1788328172 17.78° C 92% 1019.5 hPa - - - -
1788327868 17.78° C 92% 1019.2 hPa - - - -
1788327571 17.78° C 92% 1019.2 hPa - - - -
1788327268 17.78° C 92% 1019.5 hPa - - - -
1788326971 17.78° C 92% 1019.5 hPa - - - -
1788326668 17.78° C 92% 1019.2 hPa - - - -
1788326371 17.78° C 92% 1019.5 hPa - - - -
1788326067 17.78° C 91% 1019.2 hPa - - - -
1788325771 17.78° C 91% 1019.5 hPa - - - -

* Rain since midnight (hover to see other rain measurements)
** Current wind speed in m/s (hover to see current wind gust speed)